Spirit of St Louis, MO

12:18 PM CST on December 15, 2017 (GMT -0600)
Spirit Of Saint Louis

Weather History for KSUS - September, 2013

Change the Weather History Date:

Monday, September 30, 2013

  Actual Average Record
Temperature  
Mean Temperature 62 °F -  
Max Temperature 79 °F 72 °F 88 °F (2007)
Min Temperature 46 °F 46 °F 35 °F (1999)
Degree Days  
Heating Degree Days 2    
Growing Degree Days 12 (Base 50)    
Moisture  
Dew Point 53 °F    
Average Humidity 85    
Maximum Humidity 100    
Minimum Humidity 48    
Precipitation  
Precipitation 0.00 in - - ()
Sea Level Pressure  
Sea Level Pressure 29.95 in    
Wind  
Wind Speed 1 mph (South)    
Max Wind Speed 9 mph    
Max Gust Speed -    
Visibility 7 miles    
Events Fog    
Averages and records for this station are not official NWS values.
T = Trace of Precipitation, MM = Missing Value Source: NWS Daily Summary

Daily Weather History Graph

Daily Weather History Graph

Search for Another Location

Airport or City:

Trip Planner

Search our weather history database for the weather conditions in past years. The results will help you decide how hot, cold, wet, or windy it might be!

Date:

Astronomy

Sep. 30, 2013 Rise Set
Actual Time 6:57 AM CDT 6:46 PM CDT
Civil Twilight 6:31 AM CDT 7:12 PM CDT
Nautical Twilight 6:00 AM CDT 7:43 PM CDT
Astronomical Twilight 5:29 AM CDT 8:14 PM CDT
Moon 2:37 AM CDT (9/30) 4:15 PM CDT (9/30)
Length of Visible Light 12h 41m
Length of Day
11h 48m
Waning Crescent, 19% of the Moon is Illuminated
Sep 30
Waning Crescent
Oct 4
New
Oct 11
First Quarter
Oct 18
Full
Oct 26
Last Quarter

Hourly Weather History & Observations

Time (CDT) Temp. Dew Point Humidity Pressure Visibility Wind Dir Wind Speed Gust Speed Precip Events Conditions
12:54 AM 51.1 °F 48.9 °F 92% 29.97 in 10.0 mi Calm Calm - N/A   Clear
1:12 AM 50.0 °F 48.2 °F 94% 29.98 in 2.5 mi Calm Calm - N/A   Clear
1:20 AM 48.2 °F 46.4 °F 93% 29.98 in 8.0 mi Calm Calm - N/A   Clear
1:54 AM 50.0 °F 48.0 °F 93% 29.97 in 10.0 mi Calm Calm - N/A   Clear
2:09 AM 48.2 °F 46.4 °F 93% 29.97 in 2.0 mi Calm Calm - N/A   Clear
2:19 AM 48.2 °F 46.4 °F 93% 29.97 in 4.0 mi Calm Calm - N/A   Clear
2:40 AM 48.2 °F 46.4 °F 93% 29.97 in 4.0 mi Calm Calm - N/A   Partly Cloudy
2:54 AM 48.0 °F 46.0 °F 93% 29.96 in 4.0 mi WSW 3.5 mph - N/A   Partly Cloudy
3:54 AM 48.0 °F 46.0 °F 93% 29.95 in 8.0 mi Calm Calm - N/A   Clear
4:46 AM 46.4 °F 46.4 °F 100% 29.95 in 1.0 mi Calm Calm - N/A   Clear
4:52 AM 46.4 °F 46.4 °F 100% 29.95 in 4.0 mi Calm Calm - N/A   Clear
4:54 AM 46.9 °F 46.0 °F 97% 29.95 in 6.0 mi Calm Calm - N/A   Clear
5:54 AM 46.9 °F 46.0 °F 97% 29.96 in 6.0 mi Calm Calm - N/A   Clear
6:54 AM 46.9 °F 45.0 °F 93% 29.99 in 6.0 mi Calm Calm - N/A   Clear
7:52 AM 50.0 °F 48.2 °F 94% 29.99 in 10.0 mi Calm Calm - N/A   Mostly Cloudy
7:54 AM 50.0 °F 48.9 °F 96% 29.99 in 9.0 mi Calm Calm - N/A   Mostly Cloudy
8:05 AM 51.8 °F 48.2 °F 88% 29.99 in 1.5 mi Calm Calm - N/A   Overcast
8:12 AM 51.8 °F 51.8 °F 100% 29.99 in 0.8 mi Calm Calm - N/A   Overcast
8:21 AM 51.8 °F 51.8 °F 100% 29.98 in 0.8 mi Calm Calm - N/A   Mist
8:54 AM 55.0 °F 54.0 °F 96% 29.99 in 0.2 mi Calm Calm - N/A Fog Fog
9:19 AM 57.2 °F 55.4 °F 94% 29.99 in 0.5 mi Calm Calm - N/A Fog Fog
9:42 AM 57.2 °F 57.2 °F 100% 29.98 in 2.0 mi Calm Calm - N/A   Overcast
9:52 AM 60.8 °F 57.2 °F 88% 29.97 in 8.0 mi Calm Calm - N/A   Scattered Clouds
9:54 AM 60.1 °F 57.9 °F 93% 29.98 in 9.0 mi NNE 3.5 mph - N/A   Scattered Clouds
10:54 AM 66.9 °F 59.0 °F 76% 29.97 in 10.0 mi Calm Calm - N/A   Clear
11:54 AM 73.9 °F 60.1 °F 62% 29.96 in 10.0 mi Variable 4.6 mph - N/A   Scattered Clouds
12:54 PM 73.9 °F 60.1 °F 62% 29.94 in 10.0 mi SSW 6.9 mph - N/A   Mostly Cloudy
1:54 PM 75.0 °F 59.0 °F 57% 29.91 in 10.0 mi South 6.9 mph - N/A   Mostly Cloudy
2:54 PM 77.0 °F 57.9 °F 52% 29.89 in 10.0 mi SSW 4.6 mph - N/A   Overcast
3:54 PM 79.0 °F 57.9 °F 48% 29.87 in 10.0 mi SE 9.2 mph - N/A   Mostly Cloudy
4:54 PM 77.0 °F 57.9 °F 52% 29.87 in 10.0 mi South 5.8 mph - N/A   Mostly Cloudy
5:54 PM 77.0 °F 57.9 °F 52% 29.88 in 10.0 mi SW 4.6 mph - N/A   Mostly Cloudy
6:54 PM 66.9 °F 60.1 °F 79% 29.89 in 10.0 mi South 3.5 mph - N/A   Scattered Clouds
7:54 PM 64.9 °F 57.9 °F 78% 29.90 in 10.0 mi Calm Calm - N/A   Clear
8:54 PM 63.0 °F 57.9 °F 84% 29.91 in 10.0 mi South 5.8 mph - N/A   Clear
9:54 PM 68.0 °F 61.0 °F 78% 29.90 in 10.0 mi South 8.1 mph - N/A   Clear
10:54 PM 66.9 °F 62.1 °F 84% 29.91 in 10.0 mi South 8.1 mph - N/A   Clear
11:54 PM 66.0 °F 62.1 °F 87% 29.92 in 10.0 mi South 9.2 mph - N/A   Clear